Regional Weather Roundup
Issued by NWS

Home | Current Version | Previous Version | Text Only | Print | Product List | Glossary On
Versions: 1 2 3 4 5 6 7 8 9 10 11 12 13 14 15 16 17 18 19 20 21 22 23 24 25 26 27 28 29 30 31 32 33 34 35 36 37 38 39 40 41 42 43 44 45 46 47 48 49 50
257
ASUS44 KLIX 221010
RWRLA
LOUISIANA WEATHER ROUNDUP
NATIONAL WEATHER SERVICE NEW ORLEANS LA
500 AM CDT WED OCT 22 2014

NOTE: "FAIR" INDICATES FEW OR NO CLOUDS BELOW 12,000 FEET WITH NO
      SIGNIFICANT WEATHER AND/OR OBSTRUCTIONS TO VISIBILITY.
      SKY/WX - SKY CONDITION AND SIGNIFICANT WEATHER.
      TMP - AIR TEMPERATURE.    DP   - DEWPOINT TEMPERATURE.
      RH  - RELATIVE HUMIDITY.  PRES - PRESSURE.
      HX  - HEAT INDEX.         WCI  - WIND CHILL INDEX.

*  THESE STATIONS ARE NOT NWS OR FAA STATIONS AND ARE NOT UNDER
   NWS QUALITY CONTROL.

LAZ040-048-061>063-065-066-069-221100-
SOUTHEAST LOUISIANA

CITY           SKY/WX    TMP DP  RH WIND       PRES   REMARKS
N.O. AUDUBON   NOT AVBL
N.O. INTL ARPT PTCLDY    67  59  75 NE7       30.03R
N.O. LAKEFRONT CLEAR     70  60  70 NE13      30.04R
N.O. DOWNTOWN* FAIR      66  55  68 NE6       30.03S
SLIDELL        CLEAR     53  51  93 CALM      30.04R
BATON ROUGE    CLEAR     57  55  93 NE3       30.05R
BOOTHVILLE     CLEAR     71  66  84 N5        30.00S
BELLE CHASSE   CLEAR     57  54  89 CALM      30.02R
BOGALUSA*        N/A     55  52  89 CALM      30.07R
NEW ROADS*     FAIR      56  56  98 CALM      30.05S FOG
GONZALES*      FAIR      58  58 100 CALM      30.04R
HAMMOND*       CLEAR     55  54  94 N3        30.06S
HOUMA*         CLEAR     59  57  93 N5        30.02S
PORT FOURCHON* SUNNY     68  63  83 N8        30.04R

$$

LAZ041-044-053-054-221100-
SOUTHWEST LOUISIANA

CITY           SKY/WX    TMP DP  RH WIND       PRES   REMARKS
LAKE CHARLES   CLEAR     60  57  89 NE5       30.04R
LAFAYETTE      CLEAR     59  57  93 NE5       30.04R
PATTERSON      CLEAR     57  57 100 NE3       30.05S
SALT POINT       N/A     63  59  87 CALM      30.02R
NEW IBERIA     CLEAR     63  58  83 NE7       30.05R
CHENAULT AIRPK NOT AVBL

$$

LAZ027-028-221100-
CENTRAL LOUISIANA

CITY           SKY/WX    TMP DP  RH WIND       PRES   REMARKS
FORT POLK      MOCLDY    61  59  94 NE5       30.06R
ALEXANDRIA INT CLEAR     58  57  97 CALM      30.05R FOG
ALEXANDRIA     PTCLDY    54  53  97 CALM      30.07R FOG

$$

LAZ001-002-221100-
NORTHWEST LOUISIANA

CITY           SKY/WX    TMP DP  RH WIND       PRES   REMARKS
SHREVEPORT     CLEAR     59  57  93 CALM      30.09R FOG
BARKSDALE AFB  CLEAR     56  56  99 VRB2      30.09R
DTN SHREVEPORT CLEAR     56  54  93 CALM      30.09R

$$

LAZ014-016-221100-
NORTHEAST LOUISIANA

CITY           SKY/WX    TMP DP  RH WIND       PRES   REMARKS
MONROE         CLEAR     54  51  90 CALM      30.10R
TALLULAH       CLEAR     50  49  96 CALM      30.09R

$$




USA.gov is the U.S. government's official web portal to all federal, state and local government web resources and services.